STARLINK-4772 (53932 NORAD) Tracking and Keplerian Element Data

This shows tracking and keplerian element data for the satellite.

Feedback or suggestion? Click here.




ElementValue
Catalog53932
NameSTARLINK-4772
Epoch Orbit945
Epoch Day325.25001157
Epoch Year2022
RAAN329.4786
Inclination53.2151
Eccentricity0.0004135
Argument of Perigee3.3819
Mean Anonmoly110.3644
Mean Motion15.73213334
Decay Rate0.00011113
L11 53932U 22119AY 22325.25001157 .00011113 00000+0 83442-4 0 9993
L22 53932 53.2151 329.4786 0004135 3.3819 110.3644 15.73213334 9456



Live tracking and technical data element details for STARLINK-4772 (NORAD 53932). STARLINK-4772 can be tracked NOW for your location showing map with azimuth and elevation plus other details from your city location.







IsCatalogInMostPopularTable: catalog: 53932, numindb: 1
Update: records affected: 1



GetName: 53932 STARLINK-4772

Hit Count: updated at: Mon, 28 Nov 2022 21:39:01 GMT